Weather Service Report


857 
ASUS41 KAKQ 292315
RWRAKQ

REGIONAL WEATHER ROUNDUP
NATIONAL WEATHER SERVICE WAKEFIELD VA
700 PM EDT SUN MAY 29 2016

Note: "fair" indicates few or no clouds below 12,000 feet with no
significant weather and/or obstructions to visibility. * = Denotes
station may not report precipitation (e.g., rain,snow,etc.),
thunder or fog.

VAZ042-051-052>054-056-300000-
NORTHERN VIRGINIA
  
CITY           SKY/WX    TMP DP  RH WIND       PRES   REMARKS
WASH NATIONAL  LGT RAIN  73  71  93 SE5       30.08S                  
DULLES         LGT RAIN  74  69  85 SE7       30.07S                  
FORT BELVOIR   RAIN      71  69  93 SE7       30.08R FOG              
QUANTICO       LGT RAIN  71  67  87 NE5       30.08S                  
FREDERICKSBRG* DRIZZLE   70  70 100 CALM      30.06F                  
STAFFORD*      LGT RAIN  70  67  92 CALM      30.11F                  
WARRENTON      CLOUDY    74  66  75 SE6       30.07R                  
CULPEPER*      CLOUDY    75  71  89 CALM      30.08R                  
MANASSAS*      CLOUDY    73  72  94 S6        30.07R                  
LEESBURG*      CLOUDY    79  59  50 SE5       30.07S                  
WINCHESTER     RAIN      77  64  65 SW5       30.08R                  
FRONT ROYAL*   CLOUDY    72  66  83 CALM      30.07S                  
LURAY*         CLOUDY    70  70 100 SW6       30.10R                  
$$

VAZ048-049-060>072-079>083-300000-
CENTRAL AND SOUTH CENTRAL VIRGINIA
  
CITY           SKY/WX    TMP DP  RH WIND       PRES   REMARKS
RICHMOND       RAIN      70  69  97 N16       30.03F FOG              
CHESTERFIELD*  CLOUDY    72  59  64 CALM      30.06S                  
PETERSBURG*    DRIZZLE   74  74 100 NW6       30.04S                  
HANOVER        LGT RAIN  70  68  93 N3        30.06F FOG              
TAPPAHANNOCK*  LGT RAIN  75  75 100 NE6       30.06S                  
QUINTON*       CLOUDY    74  73  97 E10       30.03F                  
CHARLOTTSVILLE PTSUNNY   73  64  73 S5        30.07S                  
GORDONSVILLE*  CLOUDY    73  70  93 CALM      30.07R FOG              
ORANGE*        CLOUDY    73  64  73 CALM      30.09R                  
LOUISA*        RAIN      73  72  94 E5        30.06S                  
BUMPASS*       CLOUDY    70  69  96 CALM      30.07S                  
FARMVILLE*     CLOUDY    75  72  89 CALM      30.05S                  
CREWE*         CLOUDY    70  70 100 CALM      30.05S                  
FORT PICKETT*  NOT AVBL                                               
CHASE CITY*    CLOUDY    70  68  95 CALM      30.06S                  
CLARKSVILLE*   CLOUDY    68  68 100 NW5       30.05S                  
SOUTH HILL*    CLOUDY    73  70  92 N8        30.09F                  
LAWRENCEVILLE* CLOUDY    73  72  95 N9        30.02F                  
EMPORIA*       LGT RAIN  77  72  83 E6        30.04S                  
$$

VAZ088>098-300000-
SOUTHEAST VIRGINIA
  
CITY           SKY/WX    TMP DP  RH WIND       PRES   REMARKS
NORFOLK        FAIR      78  72  81 S8        30.04S                  
VIRGINIA BEACH PTSUNNY   82  73  74 SE6       30.04S                  
NORFOLK NAVAL  PTSUNNY   78  71  79 SE8       30.06R                  
WEST POINT*    CLOUDY    75  72  92 E5        30.06S                  
SALUDA*        MOCLDY    73  73 100 CALM      30.05F                  
NEWPORT NEWS   FAIR      76  74  93 E6        30.04S                  
LANGLEY AFB    FAIR      76  74  92 E6        30.05R                  
FORT EUSTIS    FAIR      77  67  73 SE3       30.03R                  
WILLIAMSBURG*  FAIR      77  75  94 CALM      30.06R                  
HR EXEC AP*    FAIR      79  73  83 SE8       30.06R                  
FRANKLIN*      FAIR      77  71  83 SE5       30.04S                  
US460-WAKEFLD  FAIR      77  71  82 CALM      30.03F                  
$$

VAZ020-022-025-037-045-300000-
WEST CENTRAL AND SOUTHWEST VIRGINIA
  
CITY           SKY/WX    TMP DP  RH WIND       PRES   REMARKS
STAUNTON*      RAIN      64  62  93 S3        30.14R                  
WAYNESBORO*    CLOUDY    63  61  93 CALM      30.13S                  
HOT SPRINGS VA RAIN      58  58  99 E5        30.19S                  
LYNCHBURG      CLOUDY    66  60  81 CALM      30.11R                  
DANVILLE       CLOUDY    69  61  75 N12G21    30.08S                  
SOUTH BOSTON*  CLOUDY    67  65  96 CALM      30.06F                  
MARTINSVILLE   RAIN      61  58  91 N3        30.13F                  
ROANOKE        LGT RAIN  63  61  93 NE5       30.14F                  
BLACKSBURG     DRIZZLE   66  62  85 E7        30.16F                  
DUBLIN*        CLOUDY    67  63  86 N3        30.14F                  
MARION*        CLOUDY    68  61  76 CALM      30.17R                  
HILLSVILLE*    CLOUDY    66  59  78 NE6       30.12F                  
RICHLANDS*     FAIR      69  66  91 CALM      30.15S                  
WISE*          FAIR      73  55  53 CALM      30.15F                  
ABINGDON*      FAIR      73  55  53 SE5       30.12S                  
$$

MDZ021>025-VAZ099-100-300000-
SOUTHERN MARYLAND AND THE DELMARVA PENINSULA
  
CITY           SKY/WX    TMP DP  RH WIND       PRES   REMARKS
PATUXENT RIVER CLOUDY    73  70  90 SE6       30.06S                  
BAY BRIDGE APT LGT RAIN  73  72  94 S5        30.07S                  
LEONARDTOWN    CLOUDY    73  70  88 CALM      30.08S                  
DOVER          CLOUDY    75  75 100 E8        30.07R                  
GEORGETOWN     PTSUNNY   77  72  84 S10       30.08S                  
EASTON         DRIZZLE   75  75 100 CALM      30.11S FOG              
CAMBRIDGE        N/A     73  70  88 S5        30.07R                  
SALISBURY      CLOUDY    76  72  87 S6        30.07S                  
OCEAN CITY     CLOUDY    70  67  90 VRB5      30.08S                  
WALLOPS ISLAND FAIR      73  70  90 SE6       30.08S                  
ACCOMACK*      PTSUNNY   73  68  83 CALM      30.07R                  
$$

NCZ012>017-030>032-300000-
NORTH CENTRAL AND EASTERN NORTH CAROLINA
  
CITY           SKY/WX    TMP DP  RH WIND       PRES   REMARKS
ROANOKE RAPIDS FAIR      75  73  94 SE3       30.01F                  
RALEIGH        CLOUDY    70  67  90 N6        30.02F                  
ELIZABETH CITY MOSUNNY   79  72  79 SE10      30.04F                  
AHOSKIE*       CLOUDY    79  73  81 SE5       30.02S                  
EDENTON*       MOSUNNY  N/A N/A N/A S9        30.04S                  
CURRITUCK*     MOSUNNY   79  74  85 S6        30.05S                  
KILL DEVIL HLS PTSUNNY   78  72  82 S5        30.04F                  
MANTEO         NOT AVBL                                               
CAPE HATTERAS  LGT RAIN  76  73  91 S16       30.05S                  
TARBORO*       FAIR      83  76  79 CALM      30.01S                  
GOLDSBORO      NOT AVBL                                               
WASHINGTON     CLOUDY    81  71  73 SE8       30.01S                  
GREENVILLE     CLOUDY    82  72  69 S9        30.03R                  
NEW BERN       CLOUDY    79  70  74 SE8       30.03S                  
WILMINGTON     MOSUNNY   78  70  76 SE8       29.99R                  
$$

VAZ048-300000-
ELSEWHERE
  
CITY           SKY/WX    TMP DP  RH WIND       PRES   REMARKS
HARRISBURG PA  LGT RAIN  82  63  52 VRB6      30.04R                  
BALTIMORE      LGT RAIN  72  70  93 SW5       30.07S FOG              
ANNAPOLIS      LGT RAIN  74  71  91 S3        30.06F FOG              
ANDREWS AFB    LGT RAIN  71  70  95 S3        30.07S                  
PHILADELPHIA   LGT RAIN  77  69  76 SW14      30.08R                  
HENDERSON NC   LGT RAIN  67  65  95 N7        30.05S                  
GREENSBORO     CLOUDY    69  58  67 N9        30.07S                  
ROCKY MOUNT    MOSUNNY   80  73  79 CALM      30.00F                  
$$

VAZ100-300000-
MARINE
  
STATION/POSITION TIME  TEMP    WIND        PRES    WAVE   SWELL
                       AIR SEA DIR/SP/G            HT/PER HT/PER
                 (UTC) (F)     (DEG/KT/KT) (MB)    (FT/S) (FT/S)
BRANDYWINE LGT   2200   67                   N/A
CAPE MAY NJ      2200      69                N/A
LEWES DE         2200      64                N/A
15NM E FENWICK I 2250   68 66              1019.0R   3/ 7
OCEAN-CITY-INLET 2200      60                N/A
WACHAPREAGUE VA  2206   74 79                N/A
THOMAS POINT MD  2300   71 69  180/  4/  4 1019.5F
GOOSES REEF MD   2300   71 69  230/  2/  4 1019.0F   1
COVE POINT MD    2200   72                   N/A
SOLOMONS ISLAND  2200      69                N/A
BISHOPS HEAD MD  2200      80                N/A
PINEY POINT MD   2200          130/  6/  7   N/A
POTOMAC MD       2300   72 71  140/  6/  6 1016.9F   1
CAMBRIDGE MD     2206   77 68                N/A
LEWISETTA VA     2200      71                N/A
RAPPAHANNOCK LGT 2200          130/  9/ 11 1018.2F
STINGRAY PT      2200   73 69  130/  6/  8 1017.9F   1
YORK RVR RNG VA  2200   72                   N/A
YORKTOWN VA      2200      71                N/A
JAMESTOWN VA     2300   76 75  110/  8/ 10   N/A
DOMINION TERM VA 2200   74                   N/A
KIPTOPEKE VA     2200      70                N/A
CHES BAY BRIDGE  2200      64                N/A
CAPE HENRY VA    2200   72                   N/A
CHESAPEAKE LGHT  2200   72     160/ 17/ 18 1018.0F
WILLOUBY STN VA  2200   75                   N/A
CAPE HENRY BUOY  2212      70                N/A     3/ 8
1ST LANDING BUOY 2300   71 70  120/  6/  8 1017.6R   1/ 5
CAPE CHARLES BUO 2226      69                N/A     3/ 6   2/ 8
OFFSHORE WE BUOY 2221      71                N/A     4/ 8   3/ 8
64NM E OF VA BCH 2250   70 65  150/  8/ 10 1018.2F   4/ 8   3/ 8
DUCK PIER NC     2200      64                N/A
44100 DUCK FRF   2224      70                N/A     4/ 8
44056 DUCK FRF   2211      66                N/A     3/ 7
OREGON INLET NC  2200      79                N/A
HATTERAS NC      2200      77                N/A
DIAMOND SHLS NC  2250   79 81  160/ 17/ 21 1017.0F   5/ 7   2/17
CAPE LOOKOUT NC  2200   76     140/  8/  9 1016.5R
$$
C1F1C2F2C3F3C4F4C5F5C6F6C7F7C8M1C9!

Return to Home page


Western Regional Climate Center, wrcc@dri.edu